Estación de Purranque

Ultimos registro cada 15 minutos 27
Estación Fecha / Hora Temperatura Humedad Lluvia Velocidad Dirección Radiación Presion
27 Purranque 08-05-2026 06:30 6,6 100 0 0,7 194 0,6 1008,8
26 Purranque 08-05-2026 06:15 6,6 100 0 0,3 195 0,6 1008,5
25 Purranque 08-05-2026 06:00 6,5 100 0,2 1 188 0,6 1008,3
24 Purranque 08-05-2026 05:45 6,4 100 0 0,7 175 0,6 1007,9
23 Purranque 08-05-2026 05:30 6,4 100 0 0,7 173 0,6 1007,7
22 Purranque 08-05-2026 05:15 6,3 100 0 0,7 143 0,6 1007,5
21 Purranque 08-05-2026 05:00 6,2 100 0 0,7 145 0,6 1007,3
20 Purranque 08-05-2026 04:45 6,1 100 0 1 138 0,6 1007,4
19 Purranque 08-05-2026 04:30 6,1 100 0,2 1 139 0,6 1007,6
18 Purranque 08-05-2026 04:15 6 100 0,2 1,3 138 0,6 1007,5
17 Purranque 08-05-2026 04:00 5,9 99,8 0 1 163 0,6 1007,6
16 Purranque 08-05-2026 03:45 5,9 99,6 0 1 167 0,6 1007,6
15 Purranque 08-05-2026 03:30 5,9 99,6 0 1,3 154 0,6 1007,6
14 Purranque 08-05-2026 03:15 6 99,6 0 1,3 178 0,6 1007,7
13 Purranque 08-05-2026 03:00 6 99,4 0 0,7 119 0,6 1007,7
12 Purranque 08-05-2026 02:45 6 99,2 0,2 0,7 102 0,6 1007,5
11 Purranque 08-05-2026 02:30 5,9 99,1 0 1 69 0,6 1007,6
10 Purranque 08-05-2026 02:15 5,9 99,1 0 1,3 80 0,6 1007,7
9 Purranque 08-05-2026 02:00 5,9 99,2 0 1,3 97 0,6 1007,8
8 Purranque 08-05-2026 01:45 5,8 99,2 0 1,7 76 0,6 1007,7
7 Purranque 08-05-2026 01:30 5,9 99,2 0 1,3 74 0,6 1007,8
6 Purranque 08-05-2026 01:15 6 99,2 0 1,3 65 0,6 1008,1
5 Purranque 08-05-2026 01:00 6 99,2 0 2 48 0,6 1008,2
4 Purranque 08-05-2026 00:45 6 99,3 0 2 48 0,6 1008,3
3 Purranque 08-05-2026 00:30 6 99,3 0,2 1,7 65 0,6 1008,7
2 Purranque 08-05-2026 00:15 6 99,3 0,2 2 65 0,6 1008,9
1 Purranque 08-05-2026 00:00 6 99,1 0,4 1,7 69 0,6 1008,8